KD5FHA Weather Reports


time (UTC)temp
C
wind
direction
speed
KPH
gust
KPH
rain 1hr
cm
rain 24hr
cm
rain mn
cm
humidity
%
barometer
mb
20260510075817 21 20 3.2 3.2 0.00 0.00 0.00 85 1011.0
20260510075314 21 22 1.6 3.2 0.00 0.00 0.00 85 1011.0
20260510074810 22 43 0.0 3.2 0.00 0.00 0.00 85 1010.8
20260510074307 22 89 0.0 1.6 0.00 0.00 0.00 84 1010.7
20260510073803 22 89 0.0 1.6 0.00 0.00 0.00 84 1010.7
20260510073259 22 95 0.0 1.6 0.00 0.00 0.00 84 1010.9
20260510072755 22 119 0.0 1.6 0.00 0.00 0.00 83 1011.1
20260510072253 22 117 0.0 0.0 0.00 0.00 0.00 82 1011.5
20260510071749 22 55 0.0 0.0 0.00 0.00 0.00 82 1011.4
20260510071246 22 352 1.6 1.6 0.00 0.00 0.00 81 1011.5
20260510070744 22 50 0.0 0.0 0.00 0.00 0.00 81 1011.7
20260510070241 22 21 3.2 3.2 0.00 0.00 0.00 81 1011.7
20260510065740 22 89 0.0 3.2 0.00 0.00 0.00 80 1011.8
20260510065237 22 42 3.2 8.0 0.00 0.00 0.00 80 1012.1
20260510064734 22 18 4.8 11.3 0.00 0.00 0.00 80 1012.0
20260510064232 22 9 8.0 9.7 0.00 0.00 0.00 79 1011.7
20260510063728 22 13 4.8 4.8 0.00 0.00 0.00 79 1011.1
20260510063224 22 200 3.2 6.4 0.00 0.00 0.00 78 1010.3
20260510062721 22 136 0.0 8.0 0.00 0.00 0.00 77 1010.2
20260510062217 23 190 4.8 11.3 0.00 0.00 0.00 77 1010.2
20260510061712 23 183 4.8 9.7 0.00 0.00 0.00 76 1010.3
20260510061210 23 201 6.4 9.7 0.00 0.00 0.00 76 1010.2
20260510060706 23 142 1.6 6.4 0.00 0.00 0.00 76 1010.3
20260510060203 23 147 3.2 8.0 0.00 0.00 0.00 76 1010.2
20260510055659 23 115 1.6 3.2 0.00 0.00 0.00 75 1010.3
20260510055157 23 109 0.0 3.2 0.00 0.00 0.00 74 1010.1
20260510054652 23 136 0.0 3.2 0.00 0.00 0.00 74 1010.3
20260510054148 23 137 0.0 3.2 0.00 0.00 0.00 74 1010.1
20260510053647 23 161 3.2 3.2 0.00 0.00 0.00 73 1010.0
20260510053144 23 110 0.0 3.2 0.00 0.00 0.00 72 1009.8
20260510052640 23 129 1.6 4.8 0.00 0.00 0.00 72 1009.8
20260510052136 23 102 3.2 6.4 0.00 0.00 0.00 71 1009.8
20260510051632 23 142 0.0 1.6 0.00 0.00 0.00 70 1009.9
20260510051129 23 139 0.0 1.6 0.00 0.00 0.00 70 1009.8
20260510050626 23 89 0.0 0.0 0.00 0.00 0.00 69 1009.6
20260510050123 23 78 0.0 1.6 0.00 0.00 0.00 68 1009.6
20260510045620 23 86 1.6 3.2 0.00 0.00 0.00 68 1009.5
20260510045117 23 129 0.0 3.2 0.00 0.00 0.00 68 1009.6
20260510044613 23 118 3.2 3.2 0.00 0.00 0.00 67 1009.8
20260510044110 23 121 0.0 3.2 0.00 0.00 0.00 67 1009.6
20260510043606 23 105 1.6 3.2 0.00 0.00 0.00 67 1009.9
20260510043102 23 92 1.6 1.6 0.00 0.00 0.00 67 1009.9
20260510042601 23 98 0.0 3.2 0.00 0.00 0.00 66 1010.0
20260510042056 24 89 1.6 1.6 0.00 0.00 0.00 66 1009.9
20260510041553 24 93 3.2 3.2 0.00 0.00 0.00 65 1010.1
20260510041051 24 129 0.0 3.2 0.00 0.00 0.00 64 1010.1
20260510040548 24 128 1.6 3.2 0.00 0.00 0.00 64 1010.0
20260510040043 24 78 0.0 3.2 0.00 0.00 0.00 63 1010.0
20260510035540 25 124 0.0 3.2 0.00 0.00 0.00 63 1010.0
20260510035039 25 85 3.2 3.2 0.00 0.00 0.00 63 1010.0
20260510034538 25 98 1.6 3.2 0.00 0.00 0.00 63 1010.1
20260510034035 25 126 0.0 3.2 0.00 0.00 0.00 62 1010.0
20260510033530 25 72 0.0 1.6 0.00 0.00 0.00 62 1010.2
20260510033029 25 60 1.6 1.6 0.00 0.00 0.00 62 1010.2
20260510032525 25 53 0.0 1.6 0.00 0.00 0.00 62 1010.4
20260510032020 25 115 1.6 3.2 0.00 0.00 0.00 62 1010.1
20260510031516 25 102 0.0 1.6 0.00 0.00 0.00 63 1010.1
20260510031012 25 38 0.0 1.6 0.00 0.00 0.00 63 1010.2
20260510030507 25 110 0.0 3.2 0.00 0.00 0.00 63 1010.1
20260510030005 25 89 0.0 1.6 0.00 0.00 0.00 64 1010.1
20260510025502 25 68 0.0 0.0 0.00 0.00 0.00 65 1010.0
20260510024959 25 89 0.0 0.0 0.00 0.00 0.00 64 1009.9
20260510024456 26 75 0.0 1.6 0.00 0.00 0.00 63 1009.9
20260510023952 26 99 0.0 1.6 0.00 0.00 0.00 63 1009.9
20260510023448 26 89 0.0 1.6 0.00 0.00 0.00 63 1010.0
20260510022945 26 111 0.0 3.2 0.00 0.00 0.00 63 1009.9
20260510022444 26 126 0.0 3.2 0.00 0.00 0.00 63 1009.8
20260510021943 26 105 0.0 1.6 0.00 0.00 0.00 63 1009.4
20260510021441 26 103 0.0 1.6 0.00 0.00 0.00 64 1009.6
20260510020938 26 117 0.0 1.6 0.00 0.00 0.00 65 1009.5
20260510020432 27 75 0.0 1.6 0.00 0.00 0.00 65 1009.1
20260510015928 27 89 0.0 0.0 0.00 0.00 0.00 65 1009.3
20260510015425 27 66 0.0 0.0 0.00 0.00 0.00 64 1009.3
20260510014920 27 75 0.0 0.0 0.00 0.00 0.00 63 1009.1
20260510014418 27 69 0.0 1.6 0.00 0.00 0.00 63 1009.2
20260510013914 27 89 0.0 1.6 0.00 0.00 0.00 62 1009.1
20260510013409 28 71 1.6 3.2 0.00 0.00 0.00 62 1009.1
20260510012904 28 104 0.0 1.6 0.00 0.00 0.00 60 1009.1
20260510012359 28 80 0.0 1.6 0.00 0.00 0.00 59 1009.0
20260510011854 28 89 0.0 3.2 0.00 0.00 0.00 56 1008.7
20260510011349 29 89 0.0 3.2 0.00 0.00 0.00 53 1008.8
20260510010846 29 151 0.0 1.6 0.00 0.00 0.00 52 1008.7
20260510010344 29 63 0.0 1.6 0.00 0.00 0.00 49 1008.6
20260510005840 30 182 0.0 1.6 0.00 0.00 0.00 49 1008.6
20260510005336 30 150 0.0 3.2 0.00 0.00 0.00 47 1008.8
20260510004834 30 164 0.0 3.2 0.00 0.00 0.00 45 1008.6
20260510004331 31 174 0.0 3.2 0.00 0.00 0.00 45 1008.5
20260510003829 31 240 0.0 0.0 0.00 0.00 0.00 47 1008.4
20260510003326 31 205 0.0 1.6 0.00 0.00 0.00 46 1008.6
20260510002824 31 217 0.0 0.0 0.00 0.00 0.00 44 1008.5
20260510002322 32 301 0.0 0.0 0.00 0.00 0.00 43 1008.5
20260510001818 32 334 3.2 3.2 0.00 0.00 0.00 42 1008.7
20260510001317 32 304 0.0 1.6 0.00 0.00 0.00 43 1008.4
20260510000812 32 242 0.0 1.6 0.00 0.00 0.00 42 1008.5
20260510000311 32 89 0.0 3.2 0.00 0.00 0.00 42 1008.5
20260509235807 33 22 0.0 3.2 0.00 0.00 0.00 42 1008.4
20260509235306 32 283 0.0 1.6 0.00 0.00 0.00 42 1008.3
20260509234759 33 293 0.0 1.6 0.00 0.00 0.00 42 1008.4
20260509234256 33 309 0.0 3.2 0.00 0.00 0.00 44 1008.7
20260509233754 32 255 0.0 3.2 0.00 0.00 0.00 43 1008.6
20260509233252 32 149 0.0 3.2 0.00 0.00 0.00 43 1008.5
20260509232747 32 62 0.0 1.6 0.00 0.00 0.00 42 1008.6
20260509232245 33 123 1.6 1.6 0.00 0.00 0.00 41 1008.4
20260509231741 33 44 0.0 0.0 0.00 0.00 0.00 42 1008.7
20260509231238 33 8 0.0 3.2 0.00 0.00 0.00 42 1008.7
20260509230736 34 51 3.2 3.2 0.00 0.00 0.00 40 1008.6
20260509230233 33 284 0.0 3.2 0.00 0.00 0.00 42 1008.7
20260509225727 33 233 0.0 3.2 0.00 0.00 0.00 42 1008.8
20260509225224 33 22 0.0 3.2 0.00 0.00 0.00 41 1008.7
20260509224719 33 337 0.0 3.2 0.00 0.00 0.00 41 1008.5
20260509224217 33 269 0.0 1.6 0.00 0.00 0.00 42 1008.5
20260509223714 34 0 0.0 1.6 0.00 0.00 0.00 41 1008.7
20260509223211 33 224 0.0 3.2 0.00 0.00 0.00 42 1008.6
20260509222708 33 246 0.0 3.2 0.00 0.00 0.00 42 1008.6
20260509222203 33 44 6.4 6.4 0.00 0.00 0.00 40 1008.6
20260509221654 35 44 0.0 1.6 0.00 0.00 0.00 39 1008.5
20260509221149 35 342 0.0 4.8 0.00 0.00 0.00 40 1008.5
20260509220645 33 250 1.6 3.2 0.00 0.00 0.00 41 1008.4
20260509220141 33 53 3.2 3.2 0.00 0.00 0.00 40 1008.7
20260509215638 33 316 1.6 1.6 0.00 0.00 0.00 41 1008.7
20260509215134 33 19 0.0 3.2 0.00 0.00 0.00 41 1008.7
20260509214632 33 279 1.6 3.2 0.00 0.00 0.00 41 1008.8
20260509214128 33 9 0.0 6.4 0.00 0.00 0.00 41 1008.8
20260509213625 33 29 0.0 3.2 0.00 0.00 0.00 42 1008.7
20260509213115 33 145 3.2 3.2 0.00 0.00 0.00 41 1009.0
20260509212613 33 326 0.0 4.8 0.00 0.00 0.00 41 1008.9
20260509212109 35 310 0.0 4.8 0.00 0.00 0.00 41 1009.1
20260509211605 33 0 3.2 6.4 0.00 0.00 0.00 41 1009.2
20260509211102 32 197 4.8 11.3 0.00 0.00 0.00 42 1009.0
20260509210559 34 240 4.8 4.8 0.00 0.00 0.00 39 1009.0
20260509210056 34 204 3.2 3.2 0.00 0.00 0.00 39 1009.2
20260509205550 34 251 0.0 1.6 0.00 0.00 0.00 41 1009.2
20260509205045 32 201 1.6 8.0 0.00 0.00 0.00 42 1009.3
20260509204542 32 205 3.2 6.4 0.00 0.00 0.00 40 1009.3
20260509204038 33 268 0.0 3.2 0.00 0.00 0.00 40 1009.5
20260509203534 32 228 0.0 8.0 0.00 0.00 0.00 42 1009.5
20260509203033 34 230 1.6 3.2 0.00 0.00 0.00 39 1009.5
20260509202532 34 190 1.6 3.2 0.00 0.00 0.00 38 1009.6
20260509202028 33 202 3.2 6.4 0.00 0.00 0.00 40 1009.8
20260509201523 33 211 1.6 8.0 0.00 0.00 0.00 41 1009.8
20260509201021 33 251 0.0 3.2 0.00 0.00 0.00 40 1010.0
20260509200521 32 322 1.6 6.4 0.00 0.00 0.00 42 1009.8
20260509200019 33 357 6.4 8.0 0.00 0.00 0.00 40 1009.9
20260509195514 32 353 3.2 6.4 0.00 0.00 0.00 41 1010.2
20260509195013 32 352 0.0 8.0 0.00 0.00 0.00 42 1010.2
20260509194509 32 14 3.2 6.4 0.00 0.00 0.00 41 1010.1
20260509194007 32 286 1.6 9.7 0.00 0.00 0.00 40 1010.3
20260509193506 32 267 1.6 8.0 0.00 0.00 0.00 39 1010.2
20260509193003 33 343 0.0 4.8 0.00 0.00 0.00 42 1010.2
20260509192459 32 296 1.6 3.2 0.00 0.00 0.00 41 1010.3
20260509191954 32 349 3.2 3.2 0.00 0.00 0.00 41 1010.2
20260509191450 31 72 1.6 16.1 0.00 0.00 0.00 43 1010.2
20260509190945 31 2 9.7 14.5 0.00 0.00 0.00 45 1010.3
20260509190443 32 20 1.6 6.4 0.00 0.00 0.00 46 1010.4
20260509185941 32 6 4.8 4.8 0.00 0.00 0.00 45 1010.4
20260509185438 32 5 3.2 4.8 0.00 0.00 0.00 46 1010.5
20260509184935 31 262 3.2 4.8 0.00 0.00 0.00 45 1010.6
20260509184433 31 1 3.2 6.4 0.00 0.00 0.00 47 1010.6
20260509183929 31 356 6.4 6.4 0.00 0.00 0.00 47 1010.6
20260509183428 31 356 3.2 4.8 0.00 0.00 0.00 46 1010.7
20260509182925 31 7 3.2 8.0 0.00 0.00 0.00 47 1010.7
20260509182422 32 9 6.4 12.9 0.00 0.00 0.00 47 1010.7
20260509181919 31 293 3.2 8.0 0.00 0.00 0.00 46 1010.7
20260509181417 31 330 4.8 8.0 0.00 0.00 0.00 47 1010.8
20260509180914 31 339 6.4 8.0 0.00 0.00 0.00 47 1010.8
20260509180409 30 318 6.4 8.0 0.00 0.00 0.00 48 1011.0
20260509175907 30 281 3.2 8.0 0.00 0.00 0.00 49 1011.0
20260509175403 30 11 6.4 9.7 0.00 0.00 0.00 50 1011.1
20260509174859 29 3 4.8 14.5 0.00 0.00 0.00 51 1011.1
20260509174355 29 358 3.2 8.0 0.00 0.00 0.00 51 1011.2
20260509173851 30 291 6.4 6.4 0.00 0.00 0.00 50 1011.5
20260509173346 29 284 6.4 11.3 0.00 0.00 0.00 50 1011.2
20260509172843 28 343 4.8 8.0 0.00 0.00 0.00 52 1011.3
20260509172340 30 21 8.0 11.3 0.00 0.00 0.00 50 1011.2
20260509171836 30 301 3.2 9.7 0.00 0.00 0.00 49 1011.4
20260509171332 29 301 4.8 9.7 0.00 0.00 0.00 49 1011.5
20260509170828 29 350 3.2 9.7 0.00 0.00 0.00 51 1011.4
20260509170324 30 15 6.4 8.0 0.00 0.00 0.00 50 1011.4
20260509165824 29 317 6.4 8.0 0.00 0.00 0.00 50 1011.6
20260509165318 29 240 4.8 11.3 0.00 0.00 0.00 51 1011.7
20260509164815 28 1 8.0 9.7 0.00 0.00 0.00 54 1011.7
20260509164311 28 358 3.2 14.5 0.00 0.00 0.00 54 1011.7
20260509163808 28 341 6.4 11.3 0.00 0.00 0.00 54 1011.6
20260509163305 29 328 3.2 6.4 0.00 0.00 0.00 53 1011.8
20260509162804 28 260 6.4 9.7 0.00 0.00 0.00 52 1011.6
20260509162306 27 349 8.0 16.1 0.00 0.00 0.00 54 1011.5
20260509161759 28 1 8.0 9.7 0.00 0.00 0.00 54 1011.4
20260509161255 28 11 3.2 8.0 0.00 0.00 0.00 55 1011.5
20260509160750 28 359 9.7 11.3 0.00 0.00 0.00 53 1011.6
20260509160247 27 280 3.2 11.3 0.00 0.00 0.00 54 1011.6
20260509155742 27 326 3.2 11.3 0.00 0.00 0.00 54 1011.4
20260509155239 27 306 3.2 12.9 0.00 0.00 0.00 53 1011.4
20260509154735 27 4 4.8 11.3 0.00 0.00 0.00 53 1011.4
20260509154232 27 297 3.2 6.4 0.00 0.00 0.00 55 1011.6
20260509153730 27 34 8.0 12.9 0.00 0.00 0.00 56 1011.7
20260509153225 27 312 4.8 8.0 0.00 0.00 0.00 58 1011.4
20260509152722 27 336 3.2 9.7 0.00 0.00 0.00 57 1011.5
20260509152219 26 347 4.8 9.7 0.00 0.00 0.00 59 1011.4
20260509151715 26 35 3.2 8.0 0.00 0.00 0.00 62 1011.4
20260509151212 26 10 8.0 9.7 0.00 0.00 0.00 62 1011.2
20260509150710 26 14 4.8 4.8 0.00 0.00 0.00 65 1011.2
20260509150208 26 35 8.0 8.0 0.00 0.00 0.00 66 1011.3
20260509145704 26 295 4.8 6.4 0.00 0.00 0.00 67 1011.3
20260509145200 25 294 3.2 8.0 0.00 0.00 0.00 69 1011.4
20260509144656 25 262 3.2 6.4 0.00 0.00 0.00 70 1011.5
20260509144154 25 72 3.2 4.8 0.00 0.00 0.00 71 1011.5
20260509143651 25 343 3.2 6.4 0.00 0.00 0.00 72 1011.6
20260509143148 24 37 4.8 9.7 0.00 0.00 0.00 72 1011.6
20260509142643 24 318 6.4 8.0 0.00 0.00 0.00 74 1011.8
20260509142141 23 313 6.4 8.0 0.00 0.00 0.00 75 1011.7
20260509141636 23 325 4.8 6.4 0.00 0.00 0.00 76 1011.8
20260509141132 23 288 1.6 4.8 0.00 0.00 0.00 77 1011.7
20260509140630 23 292 3.2 8.0 0.00 0.00 0.00 77 1011.5
20260509140128 22 293 11.3 12.9 0.00 0.00 0.00 78 1011.5
20260509135624 23 16 1.6 6.4 0.00 0.00 0.00 78 1011.4
20260509135123 22 308 4.8 6.4 0.00 0.00 0.00 78 1011.4
20260509134619 22 32 4.8 8.0 0.00 0.00 0.00 79 1011.5
20260509134117 22 266 4.8 12.9 0.00 0.00 0.00 79 1011.4
20260509133614 22 19 1.6 6.4 0.00 0.00 0.00 80 1011.3
20260509133111 22 338 3.2 6.4 0.00 0.00 0.00 80 1011.3
20260509132609 22 273 1.6 8.0 0.00 0.00 0.00 80 1011.3
20260509132107 22 290 3.2 9.7 0.00 0.00 0.00 81 1011.1
20260509131603 21 322 0.0 6.4 0.00 0.00 0.00 83 1011.1
20260509131100 21 273 3.2 8.0 0.00 0.00 0.00 83 1011.1
20260509130555 21 289 6.4 11.3 0.00 0.00 0.00 83 1011.2
20260509130053 21 29 9.7 9.7 0.00 0.00 0.00 84 1011.1
20260509125549 21 134 0.0 4.8 0.00 0.00 0.00 85 1011.1
20260509125046 21 315 4.8 6.4 0.00 0.00 0.00 86 1011.0
20260509124542 20 62 0.0 4.8 0.00 0.00 0.00 87 1011.0
20260509124039 20 83 1.6 3.2 0.00 0.00 0.00 88 1011.0
20260509123537 20 226 0.0 4.8 0.00 0.00 0.00 90 1010.9
20260509123033 20 180 3.2 3.2 0.00 0.00 0.00 93 1011.0
20260509122530 20 198 0.0 3.2 0.00 0.00 0.00 94 1011.0
20260509122027 20 64 0.0 3.2 0.00 0.00 0.00 94 1011.0
20260509121523 20 199 0.0 3.2 0.00 0.00 0.00 94 1010.9
20260509121021 20 58 0.0 3.2 0.00 0.00 0.00 93 1010.7
20260509120519 20 124 0.0 1.6 0.00 0.00 0.00 93 1010.7
20260509120017 20 336 0.0 3.2 0.00 0.00 0.00 93 1010.7
20260509115514 20 4 1.6 3.2 0.00 0.00 0.00 92 1010.8
20260509115012 20 11 0.0 1.6 0.00 0.00 0.00 91 1010.8
20260509114510 20 199 1.6 3.2 0.00 0.00 0.00 91 1010.6
20260509114009 21 89 0.0 3.2 0.00 0.00 0.00 91 1010.8
20260509113506 21 161 1.6 4.8 0.00 0.00 0.00 90 1010.7
20260509113004 21 22 0.0 3.2 0.00 0.00 0.00 90 1010.6
20260509112500 21 189 4.8 9.7 0.00 0.00 0.00 90 1010.4
20260509111956 21 138 1.6 3.2 0.00 0.00 0.00 88 1010.6
20260509111454 21 220 0.0 1.6 0.00 0.00 0.00 87 1010.6
20260509110951 21 79 0.0 1.6 0.00 0.00 0.00 87 1010.6
20260509110447 22 42 1.6 1.6 0.00 0.00 0.00 86 1010.5
20260509105945 22 303 0.0 4.8 0.00 0.00 0.00 86 1010.7
20260509105443 22 259 3.2 4.8 0.00 0.00 0.00 87 1010.6
20260509104940 21 293 1.6 6.4 0.00 0.00 0.00 88 1010.5
20260509104437 21 251 0.0 3.2 0.00 0.00 0.00 90 1010.4
20260509103934 21 51 1.6 4.8 0.00 0.00 0.00 90 1010.4
20260509103432 21 78 1.6 4.8 0.00 0.00 0.00 91 1010.5
20260509102930 21 56 3.2 4.8 0.00 0.00 0.00 91 1010.3
20260509102427 21 12 8.0 12.9 0.00 0.00 0.00 92 1010.2
20260509101923 21 331 4.8 9.7 0.00 0.00 0.00 92 1010.3
20260509101419 21 8 8.0 9.7 0.00 0.00 0.00 93 1010.0
20260509100917 21 321 6.4 14.5 0.00 0.00 0.00 93 1010.0
20260509100414 21 206 4.8 17.7 0.00 0.00 0.00 93 1008.7
20260509095910 21 196 12.9 22.5 0.00 0.00 0.00 93 1008.6
20260509095408 21 195 11.3 14.5 0.00 0.00 0.00 93 1008.1
20260509094905 21 202 19.3 20.9 0.00 0.00 0.00 93 1007.6
20260509094401 21 190 6.4 14.5 0.00 0.00 0.00 93 1007.8
20260509093859 21 155 17.7 17.7 0.00 0.00 0.00 93 1007.9
20260509093356 21 164 3.2 19.3 0.00 0.00 0.00 93 1007.7
20260509092855 21 174 6.4 19.3 0.00 0.00 0.00 93 1007.9
20260509092352 21 188 11.3 20.9 0.00 0.00 0.00 93 1007.9
20260509091850 21 189 17.7 25.7 0.00 0.00 0.00 93 1008.1
20260509091346 21 134 6.4 20.9 0.00 0.00 0.00 93 1007.9
20260509090844 21 209 20.9 24.1 0.00 0.00 0.00 93 1008.1
20260509090341 21 203 14.5 19.3 0.00 0.00 0.00 93 1008.0
20260509085838 21 180 8.0 25.7 0.00 0.00 0.00 93 1008.0
20260509085335 21 189 6.4 20.9 0.00 0.00 0.00 93 1008.3
20260509084832 21 183 14.5 24.1 0.00 0.00 0.00 93 1008.3
20260509084329 20 178 4.8 19.3 0.00 0.00 0.00 93 1008.4
20260509083827 20 174 9.7 19.3 0.00 0.00 0.00 94 1008.7
20260509083323 20 197 12.9 17.7 0.00 0.00 0.00 94 1008.8
20260509082820 20 180 4.8 12.9 0.00 0.00 0.00 94 1009.3
20260509082316 20 211 9.7 12.9 0.00 0.00 0.00 94 1009.4
20260509081814 20 181 11.3 11.3 0.00 0.00 0.00 94 1009.8
20260509081310 20 165 3.2 6.4 0.00 0.00 0.00 94 1009.6
20260509080809 20 162 1.6 9.7 0.00 0.00 0.00 94 1010.3
20260509080306 20 183 3.2 8.0 0.00 0.00 0.00 93 1010.6